Oxford, CT

7:21 AM EDT on June 21, 2018 (GMT -0400)
Waterbury-Oxford

Weather History for KOXC - September, 2017

Change the Weather History Date:

Wednesday, September 13, 2017

  Actual Average Record
Temperature  
Mean Temperature 66 °F -  
Max Temperature 80 °F 70 °F 87 °F (2005)
Min Temperature 53 °F 53 °F 44 °F (2002)
Cooling Degree Days 2    
Growing Degree Days 16 (Base 50)    
Moisture  
Dew Point 60 °F    
Average Humidity 78    
Maximum Humidity 96    
Minimum Humidity 48    
Precipitation  
Precipitation 0.00 in - - ()
Sea Level Pressure  
Sea Level Pressure 29.93 in    
Wind  
Wind Speed 3 mph (WSW)    
Max Wind Speed 6 mph    
Max Gust Speed -    
Visibility 10 miles    
Events      
Averages and records for this station are not official NWS values.
T = Trace of Precipitation, MM = Missing Value Source: NWS Daily Summary

Daily Weather History Graph

Daily Weather History Graph

Search for Another Location

Airport or City:

Astronomy

Sep. 13, 2017 Rise Set
Actual Time 6:31 AM EDT 7:04 PM EDT
Civil Twilight 6:03 AM EDT 7:32 PM EDT
Nautical Twilight 5:30 AM EDT 8:05 PM EDT
Astronomical Twilight 4:56 AM EDT 8:39 PM EDT
Moon No Moon Rise 2:20 PM EDT (9/13)
Length of Visible Light 13h 29m
Length of Day
12h 33m
Last Quarter, 46% of the Moon is Illuminated
Sep 13
Last Quarter
Sep 20
New
Sep 27
First Quarter
Oct 5
Full
Oct 12
Last Quarter

Hourly Weather History & Observations

Time (EDT) Temp. Heat Index Dew Point Humidity Pressure Visibility Wind Dir Wind Speed Gust Speed Precip Events Conditions
12:51 AM 60.1 °F - 57.0 °F 90% 29.94 in 10.0 mi Calm Calm - N/A   Clear
1:51 AM 59.0 °F - 55.9 °F 90% 29.95 in 10.0 mi NNW 5.8 mph - N/A   Clear
2:51 AM 59.0 °F - 57.0 °F 93% 29.95 in 10.0 mi NW 4.6 mph - N/A   Clear
3:51 AM 55.0 °F - 54.0 °F 96% 29.96 in 10.0 mi North 4.6 mph - N/A   Clear
4:51 AM 55.9 °F - 53.1 °F 90% 29.95 in 10.0 mi North 3.5 mph - N/A   Clear
5:51 AM 55.0 °F - 53.1 °F 93% 29.96 in 10.0 mi North 3.5 mph - N/A   Clear
6:51 AM 53.1 °F - 52.0 °F 96% 29.98 in 10.0 mi Calm Calm - N/A   Clear
7:51 AM 59.0 °F - 57.0 °F 93% 29.98 in 10.0 mi Calm Calm - N/A   Clear
8:51 AM 64.0 °F - 57.9 °F 80% 29.98 in 10.0 mi Calm Calm - N/A   Clear
9:51 AM 70.0 °F - 62.1 °F 76% 29.98 in 10.0 mi Variable 3.5 mph - N/A   Clear
10:51 AM 72.0 °F - 62.1 °F 71% 29.96 in 10.0 mi Calm Calm - N/A   Clear
11:51 AM 75.9 °F - 59.0 °F 56% 29.95 in 10.0 mi Calm Calm - N/A   Clear
12:51 PM 75.9 °F - 57.0 °F 52% 29.94 in 10.0 mi Calm Calm - N/A   Clear
1:51 PM 79.0 °F - 57.9 °F 48% 29.92 in 10.0 mi Variable 3.5 mph - N/A   Clear
2:51 PM 80.1 °F 80.7 °F 59.0 °F 48% 29.91 in 9.0 mi SSW 5.8 mph - N/A   Scattered Clouds
3:51 PM 77.0 °F - 59.0 °F 54% 29.90 in 10.0 mi Variable 3.5 mph - N/A   Scattered Clouds
4:51 PM 75.0 °F - 63.0 °F 66% 29.90 in 10.0 mi SSW 5.8 mph - N/A   Clear
5:51 PM 73.9 °F - 62.1 °F 66% 29.91 in 10.0 mi SSW 5.8 mph - N/A   Mostly Cloudy
6:51 PM 73.0 °F - 61.0 °F 66% 29.91 in 10.0 mi SSW 3.5 mph - N/A   Overcast
7:51 PM 70.0 °F - 62.1 °F 76% 29.91 in 10.0 mi SSW 4.6 mph - N/A   Mostly Cloudy
8:51 PM 70.0 °F - 64.0 °F 81% 29.92 in 10.0 mi Variable 3.5 mph - N/A   Overcast
9:07 PM 69.8 °F - 64.4 °F 83% 29.90 in 10.0 mi Variable 3.5 mph - N/A   Overcast
9:51 PM 69.1 °F - 64.0 °F 84% 29.92 in 10.0 mi SSW 3.5 mph - N/A   Overcast
10:51 PM 68.0 °F - 64.9 °F 90% 29.92 in 10.0 mi SSW 3.5 mph - N/A   Overcast
11:16 PM 66.2 °F - 64.4 °F 94% 29.89 in 10.0 mi SSW 3.5 mph - N/A   Scattered Clouds
11:51 PM 66.9 °F - 64.9 °F 93% 29.92 in 10.0 mi Calm Calm - N/A   Mostly Cloudy
11:58 PM 66.2 °F - 64.4 °F 94% 29.90 in 10.0 mi Calm Calm - N/A   Mostly Cloudy